This demonstration page uses our WeatherBlox Daily Observations layout. Learn more.

41.55636, -103.73856

Hourly Observations for May 7, 2015

Temp ( °F °C ) Dew Point ( °F °C ) Humidity (%) Winds ( mph kmh ) Pressure ( in mb ) Visibility ( mi km ) Precip ( " mm )
12:35 am 00:35 Cloudy with Light Rain 48 9 46 8 94 94 NW 14 22 29.77 1008 6 9.656064 0.03 0.762
12:50 am 00:50 Cloudy with Light Rain 48 9 46 8 94 94 NW 17 28 29.77 1008 8 12.874752 0 0
12:53 am 00:53 Cloudy with Light Rain 48 9 46 8 94 94 NW 17 28 29.77 1008 8 12.874752 0.03 0.762
1:53 am 01:53 Cloudy 48 9 N/A N/A WNW 12 19 29.8 1009 10 16.09344 0.001 0.001
2:53 am 02:53 Cloudy 48 9 N/A N/A NW 16 26 29.8 1009 10 16.09344 0 0
3:53 am 03:53 Cloudy 48 9 48 9 100 100 WNW 14 22 29.8 1009 10 16.09344 0 0
4:53 am 04:53 Cloudy 48 9 43 6 82 82 NW 13 20 29.83 1010 10 16.09344 0 0
5:19 am 05:19 Cloudy 48 9 43 6 82 82 NW 12 19 29.83 1010 10 16.09344 0 0
5:53 am 05:53 Cloudy 46 8 43 6 87 87 WNW 10 17 29.85 1011 10 16.09344 0.001 0.001
6:53 am 06:53 Cloudy 48 9 43 6 82 82 WNW 10 17 29.85 1011 10 16.09344 0 0
7:32 am 07:32 Cloudy 48 9 43 6 82 82 WNW 10 17 29.91 1013 10 16.09344 0 0
7:53 am 07:53 Cloudy 48 9 43 6 82 82 WNW 13 20 29.91 1013 10 16.09344 0 0
8:53 am 08:53 Cloudy with Light Rain 48 9 41 5 76 76 NW 16 26 29.91 1013 10 16.09344 0.001 0.001
9:53 am 09:53 Cloudy 52 11 43 6 72 72 NW 14 22 29.88 1012 10 16.09344 0.001 0.001
10:53 am 10:53 Cloudy 54 12 43 6 67 67 NW 15 24 29.88 1012 10 16.09344 0 0
11:13 am 11:13 Cloudy 54 12 41 5 63 63 NNW 15 24 29.88 1012 10 16.09344 0 0
11:53 am 11:53 Cloudy 54 12 39 4 58 58 NNW 13 20 29.88 1012 10 16.09344 0 0
12:53 pm 12:53 Cloudy 55 13 39 4 55 55 NNW 16 26 29.88 1012 10 16.09344 0 0
1:53 pm 13:53 Mostly Cloudy 59 15 41 5 51 51 NNW 15 24 29.85 1011 10 16.09344 0 0
2:53 pm 14:53 Mostly Cloudy 59 15 39 4 48 48 N 14 22 29.85 1011 10 16.09344 0 0
3:53 pm 15:53 Mostly Cloudy 57 14 41 5 55 55 N 14 22 29.85 1011 10 16.09344 0 0
4:53 pm 16:53 Mostly Cloudy 57 14 41 5 55 55 N 8 13 29.88 1012 10 16.09344 0 0
5:53 pm 17:53 Partly Cloudy 57 14 41 5 55 55 N 12 19 29.88 1012 10 16.09344 0 0
6:53 pm 18:53 Sunny 54 12 43 6 67 67 NNE 14 22 29.88 1012 10 16.09344 0 0
7:53 pm 19:53 Sunny 50 10 43 6 76 76 NNE 10 17 29.94 1014 10 16.09344 0 0
8:53 pm 20:53 Mostly Cloudy 48 9 43 6 82 82 undefined N/A 30 1016 10 16.09344 0 0
9:53 pm 21:53 Cloudy 46 8 43 6 87 87 E 7 11 30.06 1018 10 16.09344 0 0
10:53 pm 22:53 Clear 46 8 41 5 82 82 SW 3 6 30.06 1018 10 16.09344 0 0
11:53 pm 23:53 Partly Cloudy 45 7 39 4 81 81 Calm 30.06 1018 10 16.09344 0 0

Powered by AerisWeather